Location: Bégole
(43.1574°N, 0.3291°E)
Time: 02:09:39
(UTC+00:00)

CZ-4B R/B - Pass Details

Date: 28 January 2023
Orbit: 809 x 881 km, 99.0° (Epoch: 27 March)

Event Time Altitude Azimuth Distance (km) Brightness Sun altitude
Rises 19:08:37 0° 172° (S) 3,315 6.3 -22.5°
Reaches altitude 10° 19:10:56 10° 174° (S) 2,392 5.5 -23.0°
Maximum altitude 19:16:12 67° 257° (WSW) 886 3.4 -23.9°
Drops below altitude 10° 19:21:34 10° 341° (NNW) 2,442 5.8 -24.9°
Sets 19:23:58 0° 344° (NNW) 3,391 6.5 -25.3°
